Regional Weather Roundup
Issued by NWS

Home | Current Version | Previous Version | Graphics & Text | Print | Product List | Glossary On
Versions: 1 2 3 4 5 6 7 8 9 10 11 12 13 14 15 16 17 18 19 20 21 22 23 24 25 26 27 28 29 30 31 32 33 34 35 36 37 38 39 40 41 42 43 44 45 46 47 48 49 50
000
ASUS43 KLSX 260007
RWRMO

WEATHER SUMMARY FOR MISSOURI
NATIONAL WEATHER SERVICE SPRINGFIELD MO
700 PM CDT SAT MAR 25 2017

NOTE: "FAIR" INDICATES FEW OR NO CLOUDS BELOW 12,000 FEET WITH NO
       SIGNIFICANT WEATHER AND/OR OBSTRUCTIONS TO VISIBILITY.
       CURRENT SKY AND/OR WEATHER CONDITIONS ARE NOT AVAILABLE FOR
       CHILLICOTHE AND FARMINGTON.

MOZ001>031-035>038-043-044-053-054-260100-
...NORTHERN AND WESTERN MISSOURI...

CITY           SKY/WX    TMP DP  RH WIND       PRES   REMARKS
KANSAS CTY INT CLOUDY    48  46  93 N10       29.86R
6HR MIN TEMP:  48; 6HR MAX TEMP:  52; 6HR PCP:  0.03;

KANSAS C DTWN  CLOUDY    52  46  80 N10       29.85R
6HR MIN TEMP:  52; 6HR MAX TEMP:  57; 6HR PCP: TRACE;

LEE`S SUMMIT   CLOUDY    53  48  83 N13       29.84R
6HR MIN TEMP:  53; 6HR MAX TEMP:  60;

ST JOSEPH      CLOUDY    46  45  96 N10       29.89R
6HR MIN TEMP:  46; 6HR MAX TEMP:  51;

CHILLICOTHE      N/A     50  48  93 N6        29.86R
6HR MIN TEMP:  50; 6HR MAX TEMP:  56; 6HR PCP:  0.02;

KIRKSVILLE     CLOUDY    50  50 100 N8        29.83S FOG
6HR MIN TEMP:  50; 6HR MAX TEMP:  54; 6HR PCP:  0.02;


$$
MOZ066>068-077>081-088>096-101>105-260100-
...SOUTHWEST MISSOURI...

CITY           SKY/WX    TMP DP  RH WIND       PRES   REMARKS
SPRINGFIELD    CLOUDY    48  45  89 SW12      29.88R
6HR MIN TEMP:  48; 6HR MAX TEMP:  59; 6HR PCP:  0.03;

JOPLIN         CLOUDY    48  44  86 W10       29.91R
6HR MIN TEMP:  48; 6HR MAX TEMP:  52;

BRANSON        CLOUDY    48  46  93 W8        29.90S

$$
MOZ032>034-039>042-045>050-055>058-069>072-260100-
...CENTRAL MISSOURI...

CITY           SKY/WX    TMP DP  RH WIND       PRES   REMARKS
COLUMBIA       CLOUDY    56  54  93 SE3       29.78R
6HR MIN TEMP:  56; 6HR MAX TEMP:  60; 6HR PCP:  0.25;

JEFFERSON CITY CLOUDY    61  55  81 CALM      29.78R
6HR MIN TEMP:  59; 6HR MAX TEMP:  63; 6HR PCP:  0.26;

ROLLA          CLOUDY    54  53  97 SW13      29.78R
6HR MIN TEMP:  54; 6HR MAX TEMP:  62; 6HR PCP:  0.17;

SEDALIA        HVY RAIN  54  53  97 SW18G24   29.81R VSB 3/4
6HR MIN TEMP:  55; 6HR MAX TEMP:  63; 6HR PCP:  0.30;

WHITEMAN AFB   LGT RAIN  54  54 100 NW7       29.81R
WARRENSBURG    DRIZZLE   52  50  93 N7        29.82R
OSAGE BEACH    LGT RAIN N/A N/A N/A SW13      29.83R

$$
MOZ051-052-059>065-260100-
...EAST CENTRAL MISSOURI...

CITY           SKY/WX    TMP DP  RH WIND       PRES   REMARKS
ST LOUIS INTL  TSTM      58  54  86 S12G23    29.81S FOG
6HR MIN TEMP:  59; 6HR MAX TEMP:  67; 6HR PCP:  0.03;

SPIRIT OF STL  LGT RAIN  59  57  93 VRB6      29.78S
6HR MIN TEMP:  59; 6HR MAX TEMP:  66; 6HR PCP:  0.15;

ST CHARLES     RAIN      58  55  90 S16       29.80R
6HR MIN TEMP:  58; 6HR MAX TEMP:  67; 6HR PCP:  0.07;


$$
MOZ072>076-082>087-097>100-106>115-260100-
...SOUTH CENTRAL AND SOUTHEAST MISSOURI...

CITY           SKY/WX    TMP DP  RH WIND       PRES   REMARKS
CAPE GIRARDEAU MOCLDY    64  56  75 S18       29.84R
6HR MIN TEMP:  61; 6HR MAX TEMP:  65; 6HR PCP:  0.02;

FARMINGTON     CLOUDY    58  53  84 SW9       29.82R
6HR MIN TEMP:  58; 6HR MAX TEMP:  64; 6HR PCP:  0.02;

POPLAR BLUFF   PTCLDY    64  52  64 SW15      29.83R
6HR MIN TEMP:  61; 6HR MAX TEMP:  68; 6HR PCP: TRACE;

WEST PLAINS    CLOUDY    53  50  89 SW10      29.88R
6HR MIN TEMP:  53; 6HR MAX TEMP:  63; 6HR PCP:  0.13;


$$



USA.gov is the U.S. government's official web portal to all federal, state and local government web resources and services.